TimeMDT,TemperatureF,Dew PointF,Humidity,Sea Level PressureIn,VisibilityMPH,Wind Direction,Wind SpeedMPH,Gust SpeedMPH,PrecipitationIn,Events,Conditions,WindDirDegrees,DateUTC
12:53 AM,57.9,41.0,53,29.72,10.0,SW,5.8,-,N/A,,Clear,220,2013-05-13 06:53:00
1:53 AM,55.9,41.0,57,29.73,10.0,WSW,8.1,-,N/A,,Clear,240,2013-05-13 07:53:00
2:53 AM,57.0,41.0,55,29.73,10.0,SW,6.9,-,N/A,,Clear,230,2013-05-13 08:53:00
3:53 AM,57.0,41.0,55,29.74,10.0,WSW,10.4,-,N/A,,Clear,240,2013-05-13 09:53:00
4:53 AM,60.1,42.1,51,29.76,10.0,WSW,12.7,-,N/A,,Clear,250,2013-05-13 10:53:00
5:53 AM,55.9,42.1,60,29.79,10.0,Calm,Calm,-,N/A,,Clear,0,2013-05-13 11:53:00
6:53 AM,60.1,44.1,55,29.81,10.0,West,8.1,-,N/A,,Clear,260,2013-05-13 12:53:00
7:53 AM,64.0,46.0,52,29.82,10.0,WSW,11.5,-,N/A,,Clear,250,2013-05-13 13:53:00
8:53 AM,71.1,46.0,41,29.82,10.0,WSW,11.5,-,N/A,,Clear,250,2013-05-13 14:53:00
9:53 AM,75.9,45.0,33,29.81,10.0,West,13.8,21.9,N/A,,Clear,270,2013-05-13 15:53:00
10:53 AM,80.1,44.1,28,29.80,10.0,West,18.4,26.5,N/A,,Clear,260,2013-05-13 16:53:00
11:53 AM,82.9,45.0,26,29.79,10.0,WSW,17.3,28.8,N/A,,Clear,250,2013-05-13 17:53:00
12:53 PM,86.0,42.1,21,29.76,10.0,West,23.0,34.5,N/A,,Clear,270,2013-05-13 18:53:00
2:53 PM,90.0,39.0,17,29.71,9.0,WNW,27.6,38.0,N/A,,Clear,290,2013-05-13 20:53:00
3:53 PM,90.0,39.9,17,29.68,10.0,West,19.6,34.5,N/A,,Clear,260,2013-05-13 21:53:00
4:53 PM,90.0,39.0,17,29.65,10.0,West,17.3,27.6,N/A,,Clear,270,2013-05-13 22:53:00
5:53 PM,89.6,39.2,17,29.66,10.0,West,10.4,18.4,N/A,,Clear,270,2013-05-13 23:53:00
6:53 PM,86.0,41.0,20,29.59,10.0,WSW,9.2,-,N/A,,Scattered Clouds,240,2013-05-14 00:53:00
7:53 PM,80.1,44.1,28,29.57,10.0,Calm,Calm,-,N/A,,Mostly Cloudy,0,2013-05-14 01:53:00
8:07 PM,78.8,46.4,32,29.64,10.0,WSW,21.9,41.4,0.00,Rain-Thunderstorm,Light Rain,250,2013-05-14 02:07:00
8:20 PM,69.8,53.6,56,29.71,7.0,WSW,24.2,47.2,0.03,Rain-Thunderstorm,Light Thunderstorms and Rain,250,2013-05-14 02:20:00
8:44 PM,71.6,51.8,50,29.60,8.0,SE,10.4,23.0,0.05,Rain,Rain,140,2013-05-14 02:44:00
8:53 PM,69.1,53.1,57,29.56,10.0,ESE,4.6,-,0.05,Rain,Light Rain,110,2013-05-14 02:53:00
9:53 PM,61.0,55.0,81,29.54,10.0,ESE,8.1,-,0.00,,Clear,110,2013-05-14 03:53:00
10:53 PM,63.0,57.0,81,29.55,10.0,North,13.8,-,N/A,,Clear,350,2013-05-14 04:53:00
11:01 PM,64.4,55.4,73,29.59,10.0,North,12.7,24.2,N/A,Thunderstorm,Partly Cloudy,350,2013-05-14 05:01:00
11:53 PM,62.1,57.0,84,29.68,9.0,NW,26.5,33.4,0.07,Rain-Thunderstorm,Light Rain,320,2013-05-14 05:53:00